Regional Weather Roundup
Issued by NWS State College, PA

Home | Current Version | Previous Version | Text Only | Print | Product List | Glossary Off
Versions: 1 2 3 4 5 6 7 8 9 10 11 12 13 14 15 16 17 18 19 20 21 22 23 24 25 26 27 28 29 30 31 32 33 34 35 36 37 38 39 40 41 42 43 44 45 46 47 48 49 50

000
ASUS41 KCTP 140203
RWRCTP

REGIONAL WEATHER ROUNDUP
NATIONAL WEATHER SERVICE STATE COLLEGE PA
900 PM EST WED DEC 13 2017

Note: "fair" indicates few or no clouds below 12,000 feet with no
significant weather and/or obstructions to visibility.

* = STATION THAT DOES NOT REPORT PRECIPITATION /E.G. RAIN...SNOW...ETC/
    THUNDER OR FOG.

PAZ002>004-007>009-013>016-020>023-029>032-140300-
WESTERN PENNSYLVANIA

CITY           SKY/WX    TMP DP  RH WIND       PRES   REMARKS
ERIE           LGT SNOW  20  17  88 SE8       29.51F FOG     WCI  10
MEADVILLE      LGT SNOW  19  17  92 VRB3      29.46F FOG
FRANKLIN*      LGT SNOW  18  16  92 SE8       29.46F VSB 1   WCI   8
NEW CASTLE     LGT SNOW  21  20  96 S5        29.48F FOG     WCI  15
BEAVER COUNTY  LGT SNOW  21  18  86 SE6       29.47  WCI  14
BUTLER*        LGT SNOW  20  18  92 SE6       29.48F FOG     WCI  12
PITTSBURGH INT LGT SNOW  23  20  88 SE7       29.48F VSB 1   WCI  15
PITTSBURGH     LGT SNOW  20  17  88 SE6       29.48F FOG     WCI  12
INDIANA*       FOG       21  21 100 SE3       29.54F VSB 1/2
LATROBE        LGT SNOW  25  19  80 CALM      29.54S VSB 1
WASHINGTON CO* LGT SNOW  22  19  89 SE3       29.51F FOG
$$

PAZ004>006-010>012-017>019-024>028-033>037-041-042-045-046-049>053-140300-
CENTRAL PENNSYLVANIA

CITY           SKY/WX    TMP DP  RH WIND       PRES   REMARKS
BRADFORD       SNOW      14  12  92 S5        29.48R VSB 1/2 WCI   6
DUBOIS         LGT SNOW  17  13  84 SE7       29.48F VSB 3/4 WCI   8
CLEARFIELD     LGT SNOW  18  15  88 CALM      29.53S VSB 3/4
JOHNSTOWN      SNOW      20  17  88 SW7       29.46F VSB 1/2 WCI  11
ALTOONA        LGT SNOW  24  20  84 SW9       29.55S VSB 1   WCI  14
STATE COLLEGE  LGT SNOW  21  10  63 NE6       29.57S WCI  14
WILLIAMSPORT   CLOUDY    25  10  53 CALM      29.62F
SELINSGROVE    CLOUDY    24   9  52 E3        29.65F
FT INDIANTOWN  CLOUDY    24   8  49 CALM      29.64F
CAPITAL CITY   LGT SNOW  27  12  53 S3        29.64F
HARRISBURG     LGT SNOW  27  14  58 SW5       29.64F
YORK           FLURRIES  27  17  66 VRB3      29.63F
$$

PAZ038>040-043-044-047-048-054-055-060>062-067>071-140300-
EASTERN PENNSYLVANIA

CITY           SKY/WX    TMP DP  RH WIND       PRES   REMARKS
SCRANTON       CLOUDY    21   7  54 SW8       29.60F WCI  11
MOUNT POCONO   CLOUDY    15   6  67 W9        29.53F WCI   3
ALLENTOWN      CLOUDY    25   8  48 CALM      29.65F
QUAKERTOWN*    CLOUDY    25   9  50 CALM      29.66F
READING        CLOUDY    26  11  52 CALM      29.66F
LANCASTER      CLOUDY    26  16  65 CALM      29.66F
COATESVILLE    MOCLDY    25   7  46 CALM      29.66F
POTTSTOWN      CLOUDY    25   7  46 CALM      29.68F
BLUE BELL      CLOUDY    27   9  46 CALM      29.69F
DOYLESTOWN     CLOUDY    24   6  46 CALM      29.67F
WILLOW GROVE   NOT AVBL
NORTH PHILA    CLOUDY    29   7  39 W5        29.70F
PHILADELPHIA   CLOUDY    30   8  39 SW7       29.70F
$$




USA.gov is the U.S. government's official web portal to all federal, state and local government web resources and services.